{"data":{"norad_id":49100,"intl_designator":"2021-075AB","name":"ONEWEB-0314","alt_names":[],"object_type":"PAYLOAD","status":"ACTIVE","operator":null,"country":"UK","launch_date":"2021-08-21","launch_site_code":"TYMSC","launch_vehicle":null,"mission":null,"orbit_class":"UNKNOWN","rcs_meters":null,"size_class":null,"mass_kg":null,"dimensions":null,"purposes":["comms"],"wikipedia_slug":null,"has_3d_model":false,"image_url":null,"decayed_at":null,"tle_current":{"epoch":"2026-05-25T03:35:22.553376Z","epoch_age_seconds":65272,"freshness":"FRESH","line1":"1 49100U 21075AB  26145.14956659  .00000050  00000+0  94983-4 0  9993","line2":"2 49100  87.9162  10.4315 0001902  96.3885 263.7463 13.17649533230530","mean_motion":13.17649533,"eccentricity":0.0001902,"inclination_deg":87.9162,"raan_deg":10.4315,"arg_perigee_deg":96.3885,"mean_anomaly_deg":263.7463,"bstar":9.4983e-5,"rev_number":23053,"period_min":109.28550907778,"perigee_km":1192.2710524157,"apogee_km":1195.1513834778,"semimajor_km":7571.8482179467,"source":"CELESTRAK","updated_at":"2026-05-25T13:38:22.486306Z"}}}